Theta_e
345 344 346 345 344 346 341 347 350 351 349 344 343 345 338 338 339 338 343 347 349 349 349 350 348 349 344 349 349 344 349 347 351
342 345 348 347 345 341 347 345 349 350 350 347 344 346 347 347 341 341 347 344 343 347 343 350 350 349 349 348 349 351 354 347 351
343 345 347 349 347 343 345 346 348 348 350 349 347 353 351 351 344 340 345 346 348 348 349 350 348 350 351 345 350 350 350 349 350
345 344 346 347 347 349 347 341 349 349 352 352 352 353 353 353 349 344 342 343 346 344 349 347 343 336 344 349 347 349 349 345 351
342 344 346 347 348 349 350 349 347 344 346 354 352 351 354 353 353 351 348 342 342 345 342 344 347 348 343 348 346 348 352 347 350
342 342 346 346 350 351 352 352 353 349 342 350 353 352 352 352 353 353 352 351 347 350 348 346 350 349 347 347 348 347 349 347 345
342 343 345 349 346 350 351 351 351 352 344 343 343 351 353 353 353 354 352 353 352 349 351 350 348 351 351 348 346 345 350 349 346
340 343 344 346 351 348 346 350 347 351 352 351 338 345 353 352 355 352 354 352 350 351 351 350 350 349 350 351 350 347 351 351 350
340 341 340 339 343 351 348 344 344 351 348 353 353 351 352 344 347 345 353 354 355 352 352 351 352 349 347 350 351 352 351 351 350
339 337 338 337 339 344 348 348 346 343 344 346 348 350 352 353 352 354 353 352 352 352 352 352 351 351 348 348 348 349 350 350 349
337 336 337 340 342 346 349 346 346 346 342 342 343 345 348 348 349 350 352 352 352 352 353 353 352 352 351 350 349 351 349 350 350
335 337 340 342 342 345 347 347 347 345 345 345 345 342 340 342 346 350 351 352 352 352 353 353 353 352 353 352 352 351 350 349 351
337 339 340 340 342 342 344 345 342 344 345 345 344 345 347 344 344 349 350 351 350 351 352 353 353 353 352 352 352 351 350 348 348
336 339 339 338 337 339 341 342 344 343 342 343 344 345 343 341 340 342 345 346 347 348 350 351 352 352 352 352 351 350 348 347 346
337 338 338 336 337 339 341 342 340 342 341 342 342 342 344 343 338 337 338 338 336 337 341 347 350 351 351 350 348 348 348 347 345
337 336 335 333 334 337 339 340 334 341 340 341 340 343 344 342 336 336 338 338 337 337 338 343 343 343 344 347 346 346 346 348 346
335 335 335 333 333 334 336 340 340 331 342 338 338 340 342 341 337 335 339 341 340 340 340 341 341 341 340 341 341 341 344 345 344
334 335 335 335 335 335 336 339 340 336 336 335 338 339 342 340 340 335 333 332 334 337 337 337 336 336 337 337 339 340 342 342 342
333 334 335 337 338 337 337 338 339 338 335 337 335 338 337 338 338 337 333 332 331 331 334 334 334 334 333 334 334 333 333 333 332
337 337 338 339 340 338 338 336 334 336 334 334 333 334 338 338 337 337 335 333 332 331 331 333 333 331 330 330 329 330 330 330 330
Wind_Speed
18 8 27 22 28 12 16 26 34 30 23 21 25 23 22 24 22 20 18 16 14 10 13 18 17 14 8 7 6 5 4 5 3
4 3 7 12 31 18 29 30 28 32 25 21 24 25 22 20 20 20 16 15 12 10 11 11 20 13 14 8 7 7 10 5 3
7 4 2 1 22 22 22 25 28 30 27 24 24 25 23 23 20 20 20 19 18 16 11 11 8 14 12 8 11 9 12 11 10
9 2 1 4 4 12 19 17 18 28 29 24 23 25 24 22 20 20 22 24 20 18 15 19 23 11 8 10 11 12 16 12 10
8 3 1 3 5 6 7 12 28 23 39 32 26 23 30 25 23 22 18 20 23 18 21 17 11 9 12 15 13 16 18 11 10
11 4 4 2 3 3 2 3 2 24 18 16 26 30 28 28 26 23 25 20 14 21 19 18 17 18 18 17 15 17 15 13 13
15 8 4 4 1 3 3 6 3 3 15 31 25 14 28 29 27 26 22 24 22 16 23 21 20 22 20 18 17 19 17 15 14
7 8 6 5 5 4 4 2 7 5 3 11 19 19 20 23 24 24 25 22 21 21 20 22 22 22 23 21 19 18 19 20 17
10 9 6 3 3 5 8 9 8 8 11 11 15 16 14 16 25 18 28 24 22 25 25 24 23 23 24 26 25 19 20 21 19
13 11 8 4 2 3 4 9 6 6 11 12 13 16 19 18 20 15 22 27 25 25 28 29 29 27 25 27 28 25 25 25 24
14 12 9 6 3 2 5 6 3 4 7 8 11 12 10 14 16 22 21 22 23 26 28 31 32 31 30 27 29 28 23 25 26
15 13 10 8 5 3 2 3 2 5 6 9 9 8 13 14 13 17 20 22 23 27 27 30 33 34 33 32 31 30 27 26 26
16 13 11 8 6 4 2 3 5 8 7 9 9 9 10 10 16 18 17 18 23 23 27 28 30 34 36 35 34 34 30 28 25
15 14 11 8 5 4 2 1 2 6 10 12 11 9 11 11 12 15 17 18 21 18 19 22 26 29 31 34 35 35 31 27 27
14 13 10 8 6 4 2 2 2 3 6 8 13 12 12 13 9 11 14 17 16 15 20 21 15 21 26 27 25 29 27 27 27
15 12 9 7 6 4 3 5 8 3 7 7 10 10 10 11 7 9 11 16 18 19 17 17 18 21 21 21 18 19 24 27 29
14 11 9 6 5 4 3 5 5 8 4 7 8 11 8 6 6 6 5 5 8 11 14 15 17 20 22 21 23 23 21 20 25
13 11 9 8 7 5 4 3 4 6 6 7 6 8 11 5 6 2 2 2 2 4 4 2 1 6 9 14 19 21 26 29 27
10 9 11 10 8 6 5 4 4 10 8 8 6 8 12 13 12 9 5 4 4 6 8 9 11 13 11 13 14 14 12 15 16
11 10 9 11 10 9 8 8 10 9 13 11 6 6 5 13 14 11 10 7 5 3 5 7 8 9 9 9 9 11 10 10 10
Wind_Direction
191 217 192 172 193 169 223 196 179 183 189 188 189 202 200 209 208 207 210 211 204 239 222 208 229 222 199 197 217 204 220 222 195
197 109 66 166 192 172 223 195 187 190 193 195 193 196 202 204 203 198 207 205 226 227 222 252 199 206 186 181 229 229 242 242 247
150 114 340 213 173 159 222 219 202 193 201 203 194 191 202 204 206 202 197 204 221 215 228 237 253 173 177 207 222 228 235 238 258
109 49 276 227 251 198 195 184 228 185 193 200 193 193 202 198 208 206 201 204 216 208 234 248 235 217 197 223 219 231 257 241 246
94 93 126 248 233 266 257 236 211 251 236 189 191 200 204 200 208 202 209 209 211 214 228 235 240 249 232 221 218 226 248 251 217
146 156 132 5 26 300 221 266 45 202 231 253 192 199 201 210 207 208 205 219 218 213 222 229 217 230 230 224 224 231 245 249 229
162 161 183 165 292 343 332 273 268 169 196 255 225 239 203 206 211 212 206 210 223 210 220 230 224 219 229 234 243 229 228 250 246
166 151 181 193 206 261 277 300 278 310 211 209 228 255 214 212 200 219 222 212 213 226 228 230 236 230 225 233 238 236 226 233 245
170 166 167 184 217 270 303 290 237 239 243 216 216 222 227 218 236 251 219 224 214 215 224 228 233 235 228 226 230 234 236 243 245
164 167 153 164 209 266 269 282 306 264 261 250 246 237 226 232 220 204 211 223 224 224 228 229 231 235 235 230 233 223 229 241 244
157 148 147 151 164 214 282 341 299 314 329 290 274 257 252 258 239 228 228 230 232 235 233 234 235 232 234 236 235 236 230 233 241
159 152 152 144 148 168 214 222 224 267 312 313 331 332 271 257 265 253 242 243 246 240 238 239 240 238 237 236 239 238 236 235 238
148 153 156 152 146 142 259 277 245 243 248 285 303 305 303 285 255 251 252 249 250 244 244 243 244 242 240 240 242 244 240 237 236
151 149 147 149 144 149 174 209 245 267 256 241 248 262 274 276 278 254 244 246 249 251 250 248 249 249 246 242 241 243 244 238 230
157 154 152 157 156 149 180 246 278 275 282 260 240 254 265 273 273 256 247 246 244 248 248 251 255 252 253 253 243 247 249 236 233
162 165 163 169 160 164 218 280 314 276 259 280 242 236 252 268 283 296 276 262 258 260 264 258 255 259 263 263 258 257 256 248 236
166 171 174 194 186 198 215 246 276 309 287 287 256 244 241 264 278 315 294 275 270 263 253 249 252 259 261 260 260 258 250 234 214
172 183 193 208 213 225 222 231 254 313 304 295 270 229 213 235 271 288 89 63 71 70 63 78 194 252 261 260 252 236 224 215 216
184 203 209 210 214 231 230 248 276 285 301 297 275 254 238 235 236 220 191 133 93 81 79 85 90 92 85 95 94 103 108 112 114
199 215 229 212 214 234 230 255 277 268 297 304 290 275 241 223 236 226 204 191 160 123 104 100 102 99 103 104 111 121 115 119 125